Location: B?ogocice
(50.2413°N, 20.2361°E)
Time: 04:29:56
(UTC+00:00)

ALOS - Pass Details

Date: 25 September 2024
Orbit: 670 x 673 km, 98.0° (Epoch: 04 October)

Event Time Altitude Azimuth Distance (km) Brightness Sun altitude
Rises 00:28:40 0° 24° (NNE) 3,029 6.6 -34.7°
Reaches altitude 10° 00:31:19 10° 39° (NE) 2,110 5.6 -34.5°
Enters shadow 00:34:04 22° 74° (ENE) 1,459 4.4 -34.2°
